Luxor, Egypt

10:02 AM EET on May 24, 2017 (GMT +0200)
Luxor

Weather History for HELX - July, 2013

Change the Weather History Date:

Saturday, July 13, 2013

  Actual Average Record
Temperature  
Mean Temperature 92 °F -  
Max Temperature 105 °F 103 °F 117 °F (2014)
Min Temperature 78 °F 77 °F 75 °F (1996)
Cooling Degree Days 26    
Growing Degree Days 42 (Base 50)    
Moisture  
Dew Point 63 °F    
Average Humidity 37    
Maximum Humidity 55    
Minimum Humidity 19    
Precipitation  
Precipitation 0.00 in 0.00 in - ()
Sea Level Pressure  
Sea Level Pressure 29.66 in    
Wind  
Wind Speed 3 mph ()    
Max Wind Speed 9 mph    
Max Gust Speed -    
Visibility 6.0 miles    
Events      
Averages and records for this station are not official NWS values.
T = Trace of Precipitation, MM = Missing Value Source: Averaged Metar Reports

Daily Weather History Graph

Daily Weather History Graph

Search for Another Location

Airport or City:

Trip Planner

Search our weather history database for the weather conditions in past years. The results will help you decide how hot, cold, wet, or windy it might be!

Date:

Astronomy

Jul. 13, 2013 Rise Set
Actual Time 5:06 AM EET 6:43 PM EET
Civil Twilight 4:40 AM EET 7:08 PM EET
Nautical Twilight 4:10 AM EET 7:39 PM EET
Astronomical Twilight 3:38 AM EET 8:11 PM EET
Moon 9:28 AM EET (7/13) 9:50 PM EET (7/13)
Length of Visible Light 14h 27m
Length of Day
13h 36m
Waxing Crescent, 23% of the Moon is Illuminated
Jul 13
Waxing Crescent
Jul 16
First Quarter
Jul 22
Full
Jul 29
Last Quarter
Aug 6
New

Hourly Weather History & Observations

Time (EET) Temp. Heat Index Dew Point Humidity Pressure Visibility Wind Dir Wind Speed Gust Speed Precip Events Conditions
12:00 AM 86.0 °F 86.1 °F 60.8 °F 43% 29.68 in - WSW 3.5 mph - N/A   Clear
1:00 AM 84.2 °F 84.4 °F 60.8 °F 45% 29.68 in - SW 3.5 mph - N/A   Clear
2:00 AM 84.2 °F 84.4 °F 60.8 °F 45% 29.65 in - Calm Calm - N/A   Clear
3:00 AM 82.4 °F 83.4 °F 62.6 °F 51% 29.68 in - SSW 2.3 mph - N/A   Clear
4:00 AM 82.4 °F 83.4 °F 62.6 °F 51% 29.68 in - South 2.3 mph - N/A   Clear
5:00 AM 79 °F - 62 °F 45% 29.68 in 6 mi Calm Calm - -  
5:10 AM 78.8 °F - 60.8 °F 54% 29.68 in - Calm Calm - N/A   Clear
6:00 AM 82.4 °F 83.9 °F 64.4 °F 54% 29.68 in - Calm Calm - N/A   Clear
7:00 AM 84.2 °F 86.6 °F 66.2 °F 55% 29.71 in - Calm Calm - N/A   Clear
8:00 AM 87 °F - 53 °F 21% 29.70 in 6 mi West 4.5 mph - -  
8:00 AM 87.8 °F 91.4 °F 68.0 °F 52% 29.71 in - West 2.3 mph - N/A   Clear
9:00 AM 89.6 °F 93.4 °F 68.0 °F 49% 29.71 in - North 2.3 mph - N/A   Clear
10:00 AM 91.4 °F 93.2 °F 64.4 °F 41% 29.71 in - North 5.8 mph - N/A   Clear
11:00 AM 95 °F - 63 °F 25% 29.68 in 6 mi NNW 8.9 mph - -   Clear
11:00 AM 95.0 °F 96.0 °F 62.6 °F 34% 29.68 in - NNW 4.6 mph - N/A   Clear
12:00 PM 98.6 °F 100.0 °F 62.6 °F 30% 29.68 in - NNW 4.6 mph - N/A   Clear
1:00 PM 98.6 °F 100.0 °F 62.6 °F 30% 29.65 in - NNW 4.6 mph - N/A   Clear
2:00 PM 101 °F - 64 °F 21% 29.63 in 6 mi NW 5.8 mph - -  
2:00 PM 102.2 °F 105.5 °F 64.4 °F 29% 29.65 in - NW 5.8 mph - N/A   Clear
3:00 PM 104.0 °F 107.4 °F 64.4 °F 27% 29.62 in - NW 5.8 mph - N/A   Clear
4:00 PM 105.8 °F 108.3 °F 62.6 °F 24% 29.62 in - NW 4.6 mph - N/A   Clear
5:00 PM 103 °F - 64 °F 19% 29.60 in 6 mi WNW 5.8 mph - -  
5:00 PM 102.2 °F 105.5 °F 64.4 °F 29% 29.62 in - WNW 5.8 mph - N/A   Clear
6:00 PM 100.4 °F 104.9 °F 66.2 °F 33% 29.62 in - West 5.8 mph - N/A   Clear
7:00 PM 95.0 °F 97.0 °F 64.4 °F 36% 29.62 in - West 5.8 mph - N/A   Clear
8:00 PM 93 °F - 64 °F 28% 29.64 in 6 mi SW 6.7 mph - -  
8:00 PM 93.2 °F 94.9 °F 64.4 °F 38% 29.65 in - SW 3.5 mph - N/A   Clear
9:00 PM 91.4 °F 93.2 °F 64.4 °F 41% 29.65 in - SW 4.6 mph - N/A   Clear
10:00 PM 89.6 °F 90.1 °F 62.6 °F 40% 29.68 in - Calm Calm - N/A   Clear
11:00 PM 87 °F - 61 °F 32% 29.67 in 6 mi Calm Calm - -  
11:00 PM 87.8 °F 87.6 °F 60.8 °F 40% 29.68 in - Calm Calm - N/A   Clear